Location: ??????????
(42.1626°N, 44.1160°E)
Time: 21:37:23
(UTC+00:00)

Ariane Rocket - Pass Details

Date: 03 March 2021
Orbit: 759 x 771 km, 98.7° (Epoch: 18 April)

Event Time Altitude Azimuth Distance (km) Brightness Sun altitude
Exits shadow 17:01:53 61° 138° (SE) 872 3.0 -24.0°
Maximum altitude 17:02:43 76° 74° (ENE) 797 2.8 -24.1°
Drops below altitude 10° 17:07:50 10° 349° (N) 2,321 5.8 -25.1°
Sets 17:10:09 0° 348° (NNW) 3,251 6.6 -25.5°
